Regional Weather Roundup
Issued by NWS

Home | Current Version | Previous Version | Text Only | Print | Product List | Glossary On
Versions: 1 2 3 4 5 6 7 8 9 10 11 12 13 14 15 16 17 18 19 20 21 22 23 24 25 26 27 28 29 30 31 32 33 34 35 36 37 38 39 40 41 42 43 44 45 46 47 48 49 50
000
ASUS43 KMPX 240110
RWRMN
WEATHER ROUNDUP FOR MINNESOTA
NATIONAL WEATHER SERVICE TWIN CITIES/CHANHASSEN MN
700 PM CST MON JAN 23 2017


NOTE: "FAIR" INDICATES FEW OR NO CLOUDS BELOW 12,000 FEET WITH NO
SIGNIFICANT WEATHER AND/OR OBSTRUCTIONS TO VISIBILITY. N/A MEANS
CURRENT SKY AND/OR WEATHER CONDITIONS ARE NOT AVAILABLE.

MNZ060>063-068>070-240200-
   Twin Cities Metro

CITY           SKY/WX    TMP DP  RH WIND       PRES   REMARKS
TWIN CITIES    CLOUDY    34  29  82 NW5       29.83F WCI  30
ST PAUL        CLOUDY    34  30  85 CALM      29.84F
CRYSTAL        CLOUDY    33  28  81 CALM      29.82F
BLAINE         CLOUDY    34  34 100 CALM      29.83S FOG
LAKEVILLE      CLOUDY    30  28  93 NW3       29.83S
EDEN PRAIRIE   CLOUDY    33  28  81 CALM      29.82F
SOUTH ST PAUL  CLOUDY    34  31  88 CALM      29.83F
LAKE ELMO      CLOUDY    34  32  93 CALM      29.84S
$$
MNZ001>005-007-008-013>017-022>024-027-028-240200-
   Northwest Minnesota

CITY           SKY/WX    TMP DP  RH WIND       PRES   REMARKS
BEMIDJI        CLOUDY    30  24  77 W6        29.79S WCI  24
HALLOCK        CLOUDY    28  25  86 SW8       29.78F WCI  20
ROSEAU         CLOUDY    28  25  86 SW8       29.78F WCI  20
WARROAD        CLOUDY    28  25  86 SW5       29.79S WCI  23
THIEF RVR FALL   N/A     28  23  81 W9        29.82R WCI  19
CROOKSTON      CLOUDY    28  27  93 SW6       29.83S WCI  22
FOSSTON        CLOUDY    27  23  86 W8        29.81S WCI  18
DETROIT LAKES  CLOUDY    32  28  86 NW3       29.82S
MOORHEAD       CLOUDY    30  27  86 NW3       29.85R
PARK RAPIDS    CLOUDY    31  23  72 W5        29.80S WCI  26
MAHNOMEN       CLOUDY    29  25  86 W9        29.82R WCI  21
$$
MNZ006-009>011-018-025>026-240200-
   North Central Minnesota

CITY           SKY/WX    TMP DP  RH WIND       PRES   REMARKS
BAUDETTE       CLOUDY    29  23  78 SW7       29.78S WCI  22
FLAG ISLAND    CLOUDY    28  27  93 SW14      29.77R WCI  17
INTL FALLS     CLOUDY    32  27  81 SW5       29.78S WCI  27
WASKISH        CLOUDY    30  27  86 W5        29.80S WCI  25
BIG FORK       CLOUDY    32  27  80 CALM      29.79F
LONGVILLE      CLOUDY    30  27  86 W3        29.80S
GRAND RAPIDS   CLOUDY    31  26  82 W3        29.82S
CRANE LAKE     CLOUDY    30  30 100 CALM      29.81R
ORR            CLOUDY    30  27  86 CALM      29.77S
COOK           CLOUDY    30  30 100 W7        29.79S FOG     WCI  23
WALKER         CLOUDY    30  24  77 W3        29.80S
$$
MNZ012-019>021-037-240200-
   Northeast Minnesota

CITY           SKY/WX    TMP DP  RH WIND       PRES   REMARKS
DULUTH         CLOUDY    33  32  96 NW6       29.78S WCI  28
ELY            CLOUDY    32  32 100 CALM      29.77S
HIBBING        CLOUDY    30  29  96 W5        29.79S WCI  25
EVELETH        CLOUDY    32  31  97 W7        29.79S WCI  26
DULUTH HARBOR  CLOUDY    36  34  93 CALM      29.82R
TWO HARBORS    CLEAR     36  30  80 W3        29.77S
SILVER BAY     CLOUDY    36  34  93 CALM      29.76F
GRAND MARAIS     N/A     35  34  96 CALM      29.79S
G MARAIS ARPRT CLOUDY    30  28  93 CALM      29.76R FOG
$$
MNZ029>031-032-039>041-046>048-054>057-064-240200-
   West Central Minnesota

CITY           SKY/WX    TMP DP  RH WIND       PRES   REMARKS
FERGUS FALLS   CLOUDY    30  27  86 W3        29.87S
WHEATON        CLOUDY    30  27  86 CALM      29.86S
MORRIS         CLOUDY    30  27  86 CALM      29.83R
ALEXANDRIA     CLOUDY    30  25  81 N3        29.83S
ELBOW LAKE     CLOUDY    31  26  83 W3        29.83F HAZE
WADENA         CLOUDY    30  25  80 W3        29.81S
GLENWOOD       CLOUDY    28  25  86 NW3       29.83S
APPLETON       CLOUDY    34  28  80 CALM      29.84S
ORTONVILLE     CLOUDY    30  27  86 CALM      29.84S
MADISON        CLOUDY    34  30  86 CALM      29.84S
WILLMAR        CLOUDY    32  28  86 CALM      29.85R
$$
MNZ033>034-036-042>043-049>051-058-059-240200-
   Central Minnesota

CITY           SKY/WX    TMP DP  RH WIND       PRES   REMARKS
ST CLOUD       CLOUDY    32  27  81 CALM      29.82F
SAUK CENTRE    CLOUDY    31  26  84 CALM      29.83R
PAYNESVILLE    CLOUDY    32  30  94 CALM      29.84S
AITKIN         CLOUDY    34  27  75 CALM      29.80S
PINE RIVER     CLOUDY    30  25  80 CALM      29.84S
BRAINERD       CLOUDY    31  26  82 NW5       29.82S WCI  26
STAPLES        CLOUDY    30  25  80 NW3       29.82S
LONG PRAIRIE   CLOUDY    30  27  86 CALM      29.82S
LITTLE FALLS   CLOUDY    32  27  80 CALM      29.83S
LITCHFIELD     CLOUDY    34  28  80 CALM      29.84S
BUFFALO        CLOUDY    32  27  83 W5        29.84F WCI  27
MAPLE LAKE     CLOUDY    33  29  86 NW3       29.84F
HUTCHINSON     CLOUDY    33  29  87 NW7       29.85R WCI  26
$$
MNZ037-044-045-052-053-240200-
   East Central Minnesota

CITY           SKY/WX    TMP DP  RH WIND       PRES   REMARKS
PRINCETON      CLOUDY    34  28  80 NW3       29.83S
MORA           CLOUDY    32  30  93 CALM      29.84S
CAMBRIDGE      CLOUDY    34  32  93 CALM      29.81S
RUSH CITY      CLOUDY    32  30  93 NW3       29.83S
MOOSE LAKE     CLOUDY    32  32 100 CALM      29.79F
HINCKLEY       LGT SNOW  32  32 100 CALM      29.82S
CLOQUET        CLOUDY    34  30  86 W5        29.79S WCI  30
MCGREGOR       CLOUDY    32  32 100 CALM      29.81S
$$
MNZ071>073-080-081-089-090-097-098-240200-
   Southwest Minnesota

CITY           SKY/WX    TMP DP  RH WIND       PRES   REMARKS
MONTEVIDEO     CLOUDY    32  32 100 CALM      29.86R
GRANITE FALLS  CLOUDY    33  30  89 CALM      29.86S
CANBY          CLOUDY    32  29  90 CALM      29.85S
MARSHALL       CLOUDY    31  28  89 CALM      29.84S
REDWOOD FALLS  CLOUDY    33  26  75 CALM      29.84S
OLIVIA         CLOUDY    32  28  86 NW3       29.84R
PIPESTONE      CLOUDY    30  28  93 CALM      29.80R
WINDOM         CLOUDY    30  28  93 NE3       29.82S
WORTHINGTON    CLOUDY    30  29  96 E3        29.82R
JACKSON        CLOUDY    30  28  93 CALM      29.83R
TRACY          CLOUDY    32  29  90 NE3       29.83S
SLAYTON        CLOUDY    29  28  94 CALM      29.82R
$$
MNZ065>067-074>077-082>085-091>093-240200-
   South Central Minnesota

CITY           SKY/WX    TMP DP  RH WIND       PRES   REMARKS
MANKATO        CLOUDY    32  28  85 NW7       29.84S WCI  26
NEW ULM        CLOUDY    30  30 100 CALM      29.84S FOG
ST JAMES       CLOUDY    30  30 100 CALM      29.85S
FAIRMONT       CLOUDY    30  30 100 CALM      29.84S
GLENCOE        CLOUDY    33  30  88 NW6       29.83S WCI  28
OWATONNA       CLOUDY    32  27  80 NW5       29.82F WCI  27
WASECA         CLOUDY    32  28  86 NW6       29.84S WCI  26
ALBERT LEA     CLOUDY    32  28  86 NW5       29.82S WCI  27
$$
MNZ078>079-086>088-094>096-240200-
   Southeast Minnesota

CITY           SKY/WX    TMP DP  RH WIND       PRES   REMARKS
ROCHESTER      CLOUDY    31  28  89 NW6       29.82S WCI  25
RED WING       CLOUDY    34  28  80 CALM      29.83S
STANTON        CLOUDY    33  29  85 NW3       29.82F
DODGE CENTER   MOCLDY    30  28  93 MISG      29.81F
WINONA         CLOUDY    34  32  93 CALM      29.85R
AUSTIN         CLOUDY    30  27  86 NW6       29.82S WCI  24
PRESTON        CLOUDY    31  28  88 NW5       29.82S WCI  26
$$
ABBREVIATIONS USED IN REMARKS
   TC - TEMPERATURES IN CELSIUS
  WCI - WIND CHILL INDEX
   HX - HEAT INDEX
  VSB - VISIBILITY
$$




USA.gov is the U.S. government's official web portal to all federal, state and local government web resources and services.